Weather History for Reno, NV

Change the Weather History Date:

Friday, December 28, 2012

  Actual Average Record
Temperature  
Mean Temperature 24 °F 34 °F  
Max Temperature 30 °F 44 °F 63 °F (1998)
Min Temperature 17 °F 24 °F 0 °F (1974)
Degree Days  
Heating Degree Days 41 31  
Month to date heating degree days 755 831  
Since 1 July heating degree days 1554 1934  
Cooling Degree Days 0 0  
Month to date cooling degree days 0 0  
Year to date cooling degree days 1272 839  
Moisture  
Dew Point 19 °F    
Average Humidity 75    
Maximum Humidity 92    
Minimum Humidity 58    
Precipitation  
Precipitation 0.03 in 0.04 in 0.76 in (1951)
Month to date precipitation 2.03 0.92  
Year to date precipitation 5.69 7.29  
Snow  
Snow 0.60 in 0.20 in 5.50 in (1941)
Month to date snowfall 5.3 4.2  
Since 1 July snowfall 6.1 7.7  
Snow Depth 2.00 in    
Sea Level Pressure  
Sea Level Pressure 30.15 in    
Wind  
Wind Speed 2 mph (SW)    
Max Wind Speed 8 mph    
Max Gust Speed 13 mph    
Visibility 7 miles    
Events Snow    
T = Trace of Precipitation, MM = Missing Value Source: NWS Daily Summary

Daily Weather History Graph

Daily Weather History Graph

Search for Another Location

Airport:

Trip Planner

Search our weather history database for the weather conditions in past years. The results will help you decide how hot, cold, wet, or windy it might be!

Date:

Astronomy

Dec. 28, 2012 Rise Set
Actual Time 7:18 AM PST 4:43 PM PST
Civil Twilight 6:48 AM PST 5:13 PM PST
Nautical Twilight 6:14 AM PST 5:47 PM PST
Astronomical Twilight 5:42 AM PST 6:19 PM PST
Moon 5:24 PM PST (12/28) 7:16 AM PST (12/28)
Length of Visible Light 10h 24m
Length of Day
9h 24m
Full, 100% of the Moon is Illuminated
Dec 28
Full
Jan 4
Last Quarter
Jan 11
New
Jan 18
First Quarter
Jan 26
Full

Hourly Weather History & Observations

Time (PST) Temp. Windchill Dew Point Humidity Pressure Visibility Wind Dir Wind Speed Gust Speed Precip Events Conditions
12:55 AM 21.0 °F 16.2 °F 14.0 °F 74% 30.20 in 10.0 mi WNW 3.5 mph - N/A   Partly Cloudy
1:55 AM 19.9 °F 12.1 °F 12.9 °F 74% 30.21 in 10.0 mi West 5.8 mph - N/A   Partly Cloudy
2:55 AM 19.0 °F 13.9 °F 14.0 °F 81% 30.22 in 10.0 mi West 3.5 mph - N/A   Scattered Clouds
3:55 AM 18.0 °F - 12.9 °F 81% 30.20 in 10.0 mi Calm Calm - N/A   Scattered Clouds
4:55 AM 18.0 °F - 10.9 °F 74% 30.21 in 10.0 mi Calm Calm - N/A   Scattered Clouds
5:55 AM 18.0 °F 12.7 °F 10.0 °F 71% 30.21 in 10.0 mi NW 3.5 mph - N/A   Mostly Cloudy
6:55 AM 18.0 °F 11.1 °F 10.0 °F 71% 30.22 in 10.0 mi West 4.6 mph - N/A   Mostly Cloudy
7:55 AM 18.0 °F 11.1 °F 10.0 °F 71% 30.22 in 10.0 mi WNW 4.6 mph - N/A   Mostly Cloudy
8:55 AM 21.0 °F - 12.0 °F 68% 30.22 in 10.0 mi Calm Calm - N/A   Mostly Cloudy
9:55 AM 24.1 °F 18.2 °F 12.9 °F 62% 30.22 in 10.0 mi West 4.6 mph - N/A   Mostly Cloudy
10:55 AM 25.0 °F - 15.1 °F 66% 30.21 in 10.0 mi Calm Calm - N/A   Mostly Cloudy
11:55 AM 26.1 °F - 16.0 °F 66% 30.18 in 10.0 mi Calm Calm - N/A   Overcast
12:55 PM 28.0 °F - 17.1 °F 63% 30.14 in 10.0 mi Calm Calm - N/A   Overcast
1:55 PM 28.9 °F 25.2 °F 18.0 °F 64% 30.14 in 10.0 mi ESE 3.5 mph - N/A   Overcast
2:55 PM 30.0 °F - 18.0 °F 61% 30.14 in 10.0 mi Calm Calm - N/A   Overcast
3:55 PM 30.0 °F 26.5 °F 19.0 °F 64% 30.14 in 10.0 mi SE 3.5 mph - N/A   Overcast
4:55 PM 30.0 °F - 19.0 °F 64% 30.14 in 10.0 mi Calm Calm - N/A   Overcast
5:36 PM 30.2 °F - 21.2 °F 69% 30.07 in 3.0 mi Calm Calm - 0.00 in Snow Light Snow
5:55 PM 28.9 °F - 21.9 °F 75% 30.14 in 2.5 mi Calm Calm - 0.00 in Snow Light Snow
6:26 PM 28.4 °F - 23.0 °F 80% 30.07 in 3.0 mi Calm Calm - 0.00 in Snow Light Snow
6:55 PM 28.0 °F - 23.0 °F 81% 30.16 in 3.0 mi Calm Calm - 0.00 in Snow Light Snow
7:02 PM 28.4 °F - 23.0 °F 80% 30.07 in 5.0 mi Calm Calm - 0.00 in Snow Light Snow
7:22 PM 28.4 °F - 23.0 °F 80% 30.08 in 8.0 mi Calm Calm - N/A Snow Light Snow
7:55 PM 28.0 °F - 23.0 °F 81% 30.16 in 8.0 mi Calm Calm - 0.00 in   Overcast
8:14 PM 28.4 °F 24.6 °F 24.8 °F 86% 30.07 in 4.0 mi South 3.5 mph - 0.00 in Snow Light Snow
8:27 PM 28.4 °F 23.3 °F 23.0 °F 80% 30.07 in 2.5 mi South 4.6 mph - 0.00 in Snow Light Snow
8:44 PM 26.6 °F 20.0 °F 23.0 °F 86% 30.07 in 1.8 mi South 5.8 mph - 0.01 in Snow Light Snow
8:55 PM 27.0 °F 20.5 °F 23.0 °F 85% 30.15 in 1.8 mi SSW 5.8 mph - 0.01 in Snow Light Snow
9:03 PM 26.6 °F 21.2 °F 23.0 °F 86% 30.07 in 2.0 mi South 4.6 mph - 0.00 in Snow Light Snow
9:48 PM 26.6 °F - 24.8 °F 93% 30.06 in 3.0 mi Calm Calm - 0.01 in Snow Light Snow
9:55 PM 27.0 °F - 24.1 °F 89% 30.13 in 3.0 mi Calm Calm - 0.01 in Snow Light Snow
10:38 PM 26.6 °F - 24.8 °F 93% 30.07 in 2.5 mi Calm Calm - 0.00 in Snow Light Snow
10:55 PM 27.0 °F - 24.1 °F 89% 30.14 in 2.0 mi Calm Calm - 0.00 in Snow Light Snow
11:55 PM 26.1 °F - 23.0 °F 88% 30.13 in 2.0 mi Calm Calm - 0.01 in Snow Light Snow